Home   Weather   Rouyn-Noranda   Past weeks

Flag for Canada Past Weather in Rouyn-Noranda, Quebec, Canada — Yesterday and Last 2 Weeks

Now
25 °F

Light snow. Partly sunny.


Feels Like: 13 °F
Forecast: 22 / 27 °F
Wind: 14 mph from North

Location: Rouyn Airport

Current Time: Dec 3, 2016 at 12:36:49 pm

Latest Report: Dec 3, 2016 at 12:00 pm


Visibility: 15 mi

Pressure: 30.17 "Hg

Humidity: 80%

Dew Point: 19 °F

Location of Rouyn-NorandaLocation

Past Weather in Rouyn-Noranda — Graph

°F

Rouyn-Noranda Temperature Yesterday

Maximum temperature yesterday: 30 °F (at 12:00 am)
Minimum temperature yesterday: 28 °F (at 8:00 am)
Average temperature yesterday: 30 °F

High & Low Weather Summary for the Past Weeks

 TemperatureHumidityPressure
High52 °F (Nov 19, 9:00 am)100% (Nov 19, 5:00 pm)30.40 "Hg (Nov 19, 5:00 pm)
Low21 °F (Nov 20, 6:00 am)71% (Nov 18, 1:00 pm)29.34 "Hg (Dec 1, 8:00 am)
Average29 °F90%29.91 "Hg
* Reported Nov 18 11:00 am — Dec 3 11:00 am, Rouyn-Noranda, Weather by CustomWeather, © 2016

Note: Actual official high and low records may vary slightly from our data, if they occured in-between our weather recording intervals... More about our weather records

Advertising

Rouyn-Noranda Weather History for the Previous 24 Hours

Scroll right to see more
 ConditionsComfort  
Time TempWeatherWind HumidityBarometerVisibility
11:00 am
Sat, Dec 3
27 °FLight snow. Broken clouds.13 mph74%30.17 "Hg15 mi
10:56 am27 °FLight snow. Broken clouds.9 mph74%30.17 "Hg15 mi
10:00 am25 °FLight mixture of precip. Broken clouds.13 mph86%30.16 "Hg8 mi
9:00 am25 °FLight snow. Partly sunny.12 mph86%30.14 "Hg6 mi
8:00 am25 °FLight mixture of precip. Overcast.10 mph86%30.14 "Hg4 mi
7:00 am25 °FLight mixture of precip. Overcast.8 mph93%30.12 "Hg5 mi
6:00 am25 °FLight mixture of precip. Low clouds.9 mph93%30.10 "Hg3 mi
5:49 am25 °FLight mixture of precip. Low clouds.8 mph93%30.10 "Hg5 mi
5:00 am25 °FLight mixture of precip. Passing clouds.7 mph93%30.09 "Hg10 mi
4:00 am27 °FLight mixture of precip. Overcast.9 mph93%30.07 "Hg10 mi
3:00 am27 °FLight snow. Mostly cloudy.6 mph93%30.06 "Hg15 mi
2:00 am27 °FLight snow. Overcast.8 mph86%30.04 "Hg15 mi
1:00 am27 °FLight snow. Passing clouds.9 mph86%30.03 "Hg15 mi
12:00 am27 °FLight snow. Mostly cloudy.8 mph86%30.01 "Hg15 mi
11:00 pm
Fri, Dec 2
28 °FLight snow. Low clouds.9 mph86%29.99 "Hg15 mi
10:51 pm28 °FLight snow. Low clouds.9 mph86%29.98 "Hg15 mi
10:00 pm28 °FLight snow. Mostly cloudy.9 mph86%29.97 "Hg12 mi
9:00 pm28 °FLight snow. Mostly cloudy.14 mph86%29.96 "Hg8 mi
8:00 pm28 °FOvercast.9 mph93%29.94 "Hg15 mi
7:00 pm28 °FLight snow. Overcast.9 mph93%29.92 "Hg15 mi
6:00 pm30 °FLight snow. Overcast.12 mph86%29.88 "Hg15 mi
5:00 pm30 °FLight snow. Overcast.8 mph86%29.85 "Hg12 mi
4:00 pm30 °FLight snow. Overcast.12 mph86%29.83 "Hg8 mi
3:00 pm30 °FLight snow. Overcast.10 mph86%29.80 "Hg4 mi
2:47 pm30 °FLight snow. More clouds than sun.12 mph86%29.79 "Hg2 mi
2:00 pm30 °FLight snow. Overcast.10 mph86%29.77 "Hg3 mi
1:00 pm30 °FLight snow. Overcast.9 mph86%29.75 "Hg3 mi
12:00 pm30 °FLight snow. More clouds than sun.9 mph86%29.73 "Hg2 mi
Weather by CustomWeather, © 2016

See weather overviewHow to use our weather pages